Fort Lauderdale, FL

2:38 AM EST on December 14, 2019 (GMT -0500)
Fort Lauderdale Executive

Weather History for KFXE - October, 2019

Change the Weather History Date:

Saturday, October 19, 2019

  Actual Average Record
Temperature  
Mean Temperature 82 °F -  
Max Temperature 86 °F 86 °F 91 °F (1989)
Min Temperature 77 °F 70 °F 57 °F (1955)
Cooling Degree Days 16    
Growing Degree Days 32 (Base 50)    
Moisture  
Dew Point 75 °F    
Average Humidity 79    
Maximum Humidity 90    
Minimum Humidity 67    
Precipitation  
Precipitation 0.08 in - - ()
Sea Level Pressure  
Sea Level Pressure 29.88 in    
Wind  
Wind Speed 9 mph ()    
Max Wind Speed 14 mph    
Max Gust Speed 21 mph    
Visibility 9.8 miles    
Events Rain    
Averages and records for this station are not official NWS values.
T = Trace of Precipitation, MM = Missing Value Source: Averaged Metar Reports

Daily Weather History Graph

Daily Weather History Graph

Search for Another Location

Airport or City:

Astronomy

Oct. 19, 2019 Rise Set
Actual Time 7:21 AM EDT 6:49 PM EDT
Civil Twilight 6:58 AM EDT 7:12 PM EDT
Nautical Twilight 6:31 AM EDT 7:39 PM EDT
Astronomical Twilight 6:04 AM EDT 8:06 PM EDT
Moon 11:19 PM EDT (10/19) 12:29 PM EDT (10/19)
Length of Visible Light 12h 14m
Length of Day
11h 27m
Waning Gibbous, 70% of the Moon is Illuminated
Oct 19
Waning Gibbous
Oct 21
Last Quarter
Oct 27
New
Nov 4
First Quarter
Nov 12
Full

Hourly Weather History & Observations

Time (EDT) Temp. Heat Index Dew Point Humidity Pressure Visibility Wind Dir Wind Speed Gust Speed Precip Events Conditions
12:53 AM 82.0 °F 88.6 °F 75.0 °F 79% 29.87 in 10.0 mi SE 11.5 mph - N/A   Clear
1:53 AM 82.0 °F 88.6 °F 75.0 °F 79% 29.86 in 10.0 mi SE 12.7 mph - N/A   Clear
2:53 AM 82.0 °F 87.9 °F 73.9 °F 76% 29.86 in 10.0 mi SSE 11.5 mph - N/A   Partly Cloudy
3:53 AM 82.0 °F 87.9 °F 73.9 °F 76% 29.84 in 10.0 mi SE 9.2 mph - N/A   Partly Cloudy
4:53 AM 82.0 °F 88.6 °F 75.0 °F 79% 29.86 in 10.0 mi SSE 13.8 mph 20.7 mph N/A   Mostly Cloudy
5:53 AM 82.0 °F 88.6 °F 75.0 °F 79% 29.86 in 10.0 mi SSE 10.4 mph 18.4 mph N/A   Scattered Clouds
6:31 AM 79.0 °F - 75.9 °F 90% 29.87 in 6.0 mi SSW 11.5 mph - 0.06 in Rain Heavy Rain
6:39 AM 77.0 °F - 73.0 °F 88% 29.87 in 9.0 mi South 4.6 mph - 0.06 in Rain Light Rain
6:53 AM 77.0 °F - 72.0 °F 84% 29.88 in 10.0 mi Calm Calm - 0.06 in   Overcast
7:53 AM 78.1 °F - 73.9 °F 87% 29.86 in 10.0 mi SE 6.9 mph - N/A   Scattered Clouds
8:53 AM 80.1 °F 85.4 °F 75.9 °F 87% 29.89 in 10.0 mi SE 8.1 mph - N/A   Clear
9:53 AM 82.0 °F 91.0 °F 78.1 °F 88% 29.92 in 10.0 mi South 5.8 mph - N/A   Clear
10:53 AM 82.9 °F 91.8 °F 77.0 °F 82% 29.92 in 10.0 mi SSE 11.5 mph 17.3 mph N/A   Scattered Clouds
11:53 AM 86.0 °F 96.9 °F 77.0 °F 74% 29.91 in 10.0 mi South 9.2 mph - N/A   Mostly Cloudy
12:53 PM 84.9 °F 92.1 °F 73.9 °F 69% 29.87 in 10.0 mi South 10.4 mph - N/A   Scattered Clouds
1:53 PM 84.9 °F 92.1 °F 73.9 °F 69% 29.87 in 10.0 mi South 11.5 mph - N/A   Partly Cloudy
2:53 PM 84.9 °F 93.3 °F 75.0 °F 72% 29.87 in 10.0 mi South 10.4 mph - N/A   Scattered Clouds
3:53 PM 84.9 °F 93.3 °F 75.0 °F 72% 29.85 in 10.0 mi South 8.1 mph - 0.02 in   Scattered Clouds
4:53 PM 84.9 °F 91.4 °F 73.0 °F 67% 29.85 in 10.0 mi South 11.5 mph - N/A   Partly Cloudy
5:53 PM 84.0 °F 91.9 °F 75.0 °F 74% 29.86 in 10.0 mi South 9.2 mph - N/A   Scattered Clouds
6:53 PM 82.9 °F 90.2 °F 75.0 °F 77% 29.87 in 10.0 mi South 8.1 mph - N/A   Partly Cloudy
7:53 PM 82.0 °F 88.6 °F 75.0 °F 79% 29.88 in 10.0 mi South 10.4 mph - N/A   Clear
8:53 PM 82.0 °F 89.4 °F 75.9 °F 82% 29.89 in 10.0 mi SSE 8.1 mph - N/A   Partly Cloudy
9:53 PM 82.0 °F 89.4 °F 75.9 °F 82% 29.90 in 10.0 mi South 10.4 mph - N/A   Partly Cloudy
10:53 PM 82.0 °F 89.4 °F 75.9 °F 82% 29.91 in 10.0 mi South 5.8 mph - N/A   Scattered Clouds
11:53 PM 82.0 °F 89.4 °F 75.9 °F 82% 29.91 in 10.0 mi South 9.2 mph - N/A   Overcast